Weather History for KRCZ - April, 2014

Change the Weather History Date:

Thursday, April 10, 2014

  Actual Average (KHFF) Record (KHFF)
Temperature  
Mean Temperature 58 °F -  
Max Temperature 76 °F 70 °F 93 °F (2001)
Min Temperature 40 °F 50 °F 32 °F (2007)
Degree Days  
Heating Degree Days 7    
Growing Degree Days 8 (Base 50)    
Moisture  
Dew Point 39 °F    
Average Humidity 55    
Maximum Humidity 97    
Minimum Humidity 23    
Precipitation  
Precipitation 0.05 in - - ()
Sea Level Pressure  
Sea Level Pressure 30.20 in    
Wind  
Wind Speed 3 mph (South)    
Max Wind Speed 15 mph    
Max Gust Speed 22 mph    
Visibility 10 miles    
Events      
Averages and records for this station are not official NWS values.
T = Trace of Precipitation, MM = Missing Value Source: NWS Daily Summary

Daily Weather History Graph

Daily Weather History Graph

Search for Another Location

Airport or City:

Trip Planner

Search our weather history database for the weather conditions in past years. The results will help you decide how hot, cold, wet, or windy it might be!

Date:

Astronomy

Apr. 10, 2014 Rise Set
Actual Time 6:53 AM EDT 7:47 PM EDT
Civil Twilight 6:27 AM EDT 8:13 PM EDT
Nautical Twilight 5:57 AM EDT 8:43 PM EDT
Astronomical Twilight 5:26 AM EDT 9:15 PM EDT
Moon 3:39 PM EDT (4/10) 4:05 AM EDT (4/10)
Length of Visible Light 13h 45m
Length of Day
12h 53m
Waxing Gibbous, 79% of the Moon is Illuminated
Apr 10
Waxing Gibbous
Apr 15
Full
Apr 22
Last Quarter
Apr 29
New
May 6
First Quarter

Hourly Weather History & Observations

Time (EDT) Temp. Windchill Dew Point Humidity Pressure Visibility Wind Dir Wind Speed Gust Speed Precip Events Conditions
12:15 AM 48.4 °F - 43.0 °F 82% 30.12 in 10.0 mi Calm Calm - N/A   Unknown
12:35 AM 48.7 °F - 42.8 °F 80% 30.12 in 10.0 mi Calm Calm - N/A   Unknown
12:55 AM 47.3 °F - 42.8 °F 84% 30.13 in 10.0 mi Calm Calm - N/A   Unknown
1:15 AM 46.4 °F - 42.6 °F 87% 30.14 in 10.0 mi Calm Calm - N/A   Unknown
1:35 AM 46.4 °F - 43.0 °F 88% 30.14 in 10.0 mi Calm Calm - N/A   Unknown
1:55 AM 45.1 °F - 42.4 °F 90% 30.14 in 10.0 mi Calm Calm - N/A   Unknown
2:15 AM 45.7 °F - 43.0 °F 90% 30.14 in 10.0 mi Calm Calm - N/A   Unknown
2:35 AM 44.6 °F - 42.8 °F 93% 30.14 in 10.0 mi Calm Calm - N/A   Unknown
2:55 AM 44.2 °F - 42.1 °F 92% 30.14 in 10.0 mi Calm Calm - N/A   Unknown
3:15 AM 44.8 °F - 42.6 °F 92% 30.15 in 10.0 mi Calm Calm - N/A   Unknown
3:35 AM 42.8 °F - 41.2 °F 94% 30.15 in 10.0 mi Calm Calm - N/A   Unknown
3:55 AM 41.9 °F 40.0 °F 41.0 °F 97% 30.15 in 7.0 mi North 3.5 mph - N/A   Unknown
4:15 AM 41.7 °F - 40.6 °F 96% 30.16 in 7.0 mi Calm Calm - N/A   Unknown
4:35 AM 41.9 °F 40.0 °F 41.0 °F 97% 30.17 in 7.0 mi North 3.5 mph - N/A   Unknown
4:55 AM 41.7 °F - 40.5 °F 95% 30.18 in 7.0 mi Calm Calm - N/A   Unknown
5:15 AM 40.5 °F - 39.4 °F 96% 30.18 in 7.0 mi Calm Calm - N/A   Unknown
5:35 AM 40.3 °F 38.2 °F 39.4 °F 97% 30.19 in 7.0 mi NNE 3.5 mph - N/A   Unknown
5:55 AM 41.0 °F - 39.9 °F 96% 30.20 in 10.0 mi Calm Calm - N/A   Unknown
6:15 AM 41.2 °F - 39.7 °F 95% 30.20 in 10.0 mi Calm Calm - N/A   Unknown
6:35 AM 40.5 °F - 39.4 °F 96% 30.21 in 7.0 mi Calm Calm - N/A   Unknown
6:55 AM 40.8 °F - 39.6 °F 95% 30.23 in 7.0 mi Calm Calm - N/A   Unknown
7:15 AM 40.1 °F - 39.0 °F 96% 30.23 in 7.0 mi Calm Calm - N/A   Unknown
7:35 AM 41.2 °F - 40.1 °F 96% 30.24 in 7.0 mi Calm Calm - N/A   Unknown
7:55 AM 44.6 °F 42.2 °F 41.4 °F 88% 30.25 in 10.0 mi NNE 4.6 mph - N/A   Unknown
8:15 AM 46.6 °F - 42.6 °F 86% 30.26 in 10.0 mi NE 3.5 mph - N/A   Unknown
8:35 AM 49.1 °F - 42.1 °F 77% 30.26 in 10.0 mi Calm Calm - N/A   Unknown
8:55 AM 53.8 °F - 44.4 °F 71% 30.26 in 10.0 mi Calm Calm - N/A   Unknown
9:15 AM 58.6 °F - 45.0 °F 60% 30.26 in 10.0 mi Calm Calm - N/A   Unknown
9:35 AM 62.2 °F - 42.6 °F 49% 30.27 in 10.0 mi Calm Calm - N/A   Unknown
9:55 AM 64.6 °F - 37.2 °F 36% 30.27 in 10.0 mi East 6.9 mph - N/A   Unknown
10:15 AM 66.2 °F - 37.6 °F 35% 30.27 in 10.0 mi ESE 5.8 mph - N/A   Unknown
10:35 AM 66.7 °F - 37.9 °F 35% 30.28 in 10.0 mi ESE 5.8 mph - N/A   Unknown
10:55 AM - - - N/A% - - North - - N/A   Unknown
11:15 AM 67.8 °F - 37.2 °F 32% 30.27 in 10.0 mi SSE 8.1 mph - N/A   Unknown
11:35 AM 69.3 °F - 38.5 °F 32% 30.27 in 10.0 mi South 4.6 mph - N/A   Unknown
11:55 AM 69.6 °F - 38.3 °F 32% 30.26 in 10.0 mi SSW 11.5 mph 17.3 mph N/A   Unknown
12:15 PM 71.1 °F - 38.1 °F 30% 30.25 in 10.0 mi South 9.2 mph 16.1 mph N/A   Unknown
12:35 PM 71.1 °F - 37.6 °F 29% 30.24 in 10.0 mi SW 8.1 mph 19.6 mph N/A   Unknown
12:55 PM 72.0 °F - 37.8 °F 29% 30.23 in 10.0 mi SW 15.0 mph 21.9 mph N/A   Unknown
1:15 PM 72.3 °F - 37.0 °F 28% 30.23 in 10.0 mi SW 9.2 mph 18.4 mph N/A   Unknown
1:35 PM 72.9 °F - 36.0 °F 26% 30.22 in 10.0 mi SSW 10.4 mph 16.1 mph N/A   Unknown
1:55 PM 73.0 °F - 37.9 °F 28% 30.21 in 10.0 mi SW 6.9 mph 16.1 mph N/A   Unknown
2:15 PM 72.9 °F - 37.6 °F 28% 30.21 in 10.0 mi South 8.1 mph 18.4 mph N/A   Unknown
2:55 PM 74.7 °F - 36.1 °F 25% 30.19 in 10.0 mi South 8.1 mph 16.1 mph N/A   Unknown
3:15 PM 74.8 °F - 37.0 °F 25% 30.19 in 10.0 mi South 15.0 mph 19.6 mph N/A   Unknown
3:35 PM 74.5 °F - 34.7 °F 23% 30.18 in 10.0 mi SSW 12.7 mph 20.7 mph N/A   Unknown
3:55 PM 75.4 °F - 36.1 °F 24% 30.17 in 10.0 mi South 10.4 mph - N/A   Unknown
4:15 PM 75.4 °F - 36.7 °F 25% 30.17 in 10.0 mi SSW 12.7 mph 18.4 mph N/A   Unknown
4:35 PM 75.7 °F - 35.6 °F 23% 30.16 in 10.0 mi South 9.2 mph - N/A   Unknown
4:55 PM 76.1 °F - 35.6 °F 23% 30.16 in 10.0 mi South 6.9 mph - N/A   Unknown
5:15 PM 76.3 °F - 35.8 °F 23% 30.16 in 10.0 mi SW 9.2 mph 17.3 mph N/A   Unknown
5:35 PM 75.4 °F - 35.2 °F 23% 30.16 in 10.0 mi South 10.4 mph 16.1 mph N/A   Unknown
5:55 PM 75.4 °F - 35.6 °F 24% 30.16 in 10.0 mi SSW 8.1 mph - N/A   Unknown
6:15 PM 74.8 °F - 36.0 °F 24% 30.16 in 10.0 mi South 8.1 mph - N/A   Unknown
6:35 PM 74.3 °F - 36.7 °F 25% 30.16 in 10.0 mi SW 11.5 mph 16.1 mph N/A   Unknown
6:55 PM 73.8 °F - 34.5 °F 24% 30.16 in 10.0 mi SSW 8.1 mph - N/A   Unknown
7:15 PM 72.5 °F - 36.5 °F 27% 30.16 in 10.0 mi South 6.9 mph - N/A   Unknown
7:35 PM 70.9 °F - 37.2 °F 29% 30.16 in 10.0 mi South 4.6 mph - N/A   Unknown
7:55 PM 69.1 °F - 37.0 °F 31% 30.16 in 10.0 mi South 3.5 mph - N/A   Unknown
8:15 PM 67.8 °F - 37.4 °F 33% 30.17 in 10.0 mi South 4.6 mph - N/A   Unknown
8:35 PM 66.9 °F - 37.2 °F 34% 30.18 in 10.0 mi South 4.6 mph - N/A   Unknown
8:55 PM 65.5 °F - 37.2 °F 35% 30.18 in 10.0 mi South 3.5 mph - N/A   Unknown
9:15 PM 62.8 °F - 38.3 °F 40% 30.20 in 10.0 mi Calm Calm - N/A   Unknown
9:35 PM 64.0 °F - 38.1 °F 38% 30.20 in 10.0 mi Calm Calm - N/A   Unknown
9:55 PM 64.4 °F - 37.4 °F 37% 30.21 in 10.0 mi SSW 4.6 mph - N/A   Unknown
10:15 PM 63.0 °F - 37.9 °F 40% 30.21 in 10.0 mi Calm Calm - N/A   Unknown
10:35 PM 62.4 °F - 37.6 °F 40% 30.21 in 10.0 mi South 4.6 mph - N/A   Unknown
10:55 PM 61.2 °F - 38.1 °F 42% 30.21 in 10.0 mi South 4.6 mph - N/A   Unknown
11:15 PM 61.2 °F - 37.9 °F 42% 30.21 in 10.0 mi South 5.8 mph - N/A   Unknown
11:35 PM 61.2 °F - 37.9 °F 42% 30.21 in 10.0 mi South 6.9 mph - N/A   Unknown
11:55 PM 61.3 °F - 38.5 °F 43% 30.22 in 10.0 mi South 8.1 mph - N/A   Unknown